Regional Weather Roundup
Issued by NWS State College, PA

Home | Current Version | Previous Version | Graphics & Text | Print | Product List | Glossary Off
Versions: 1 2 3 4 5 6 7 8 9 10 11 12 13 14 15 16 17 18 19 20 21 22 23 24 25 26 27 28 29 30 31 32 33 34 35 36 37 38 39 40 41 42 43 44 45 46 47 48 49 50

000
ASUS41 KCTP 061010
RWRCTP

REGIONAL WEATHER ROUNDUP
NATIONAL WEATHER SERVICE STATE COLLEGE PA
600 AM EDT WED MAY 06 2015

Note: "fair" indicates few or no clouds below 12,000 feet with no
significant weather and/or obstructions to visibility.

* = STATION THAT DOES NOT REPORT PRECIPITATION /E.G. RAIN...SNOW...ETC/
    THUNDER OR FOG.

PAZ002>004-007>009-013>016-020>023-029>032-061100-
WESTERN PENNSYLVANIA

CITY           SKY/WX    TMP DP  RH WIND       PRES   REMARKS
ERIE           LGT RAIN  50  49  96 SE3       30.23F FOG
MEADVILLE      LGT RAIN  59  57  93 S5        30.23S VSB 1/4
FRANKLIN*      CLOUDY    57  54  88 CALM      30.26R
NEW CASTLE     FAIR      57  55  94 CALM      30.25R FOG
BEAVER COUNTY  NOT AVBL
BUTLER*        PTCLDY    57  54  88 NE7       30.25R
PITTSBURGH INT MOCLDY    57  55  93 CALM      30.21S FOG
PITTSBURGH     PTCLDY    60  55  83 CALM      30.21R HAZE
INDIANA*       CLOUDY    59  57  94 E6        30.27R
LATROBE        FOG       55  55 100 CALM      30.24R VSB 3/4
WASHINGTON CO* CLOUDY    52  50  93 CALM      30.24R VSB<1/4
$$

PAZ004>006-010>012-017>019-024>028-033>037-041-042-045-046-049>053-061100-
CENTRAL PENNSYLVANIA

CITY           SKY/WX    TMP DP  RH WIND       PRES   REMARKS
BRADFORD       LGT RAIN  54  53  97 SE5       30.25S FOG
DUBOIS         CLOUDY    58  56  93 SE3       30.24S FOG
CLEARFIELD     LGT RAIN  57  55  93 E5        30.26R
JOHNSTOWN      PTCLDY    57  54  89 CALM      30.24S
ALTOONA        MOCLDY    59  56  89 N7        30.24R FOG
STATE COLLEGE  RAIN      57  55  94 NE7       30.25S FOG
WILLIAMSPORT   LGT RAIN  57  54  89 W3        30.26R
SELINSGROVE    RAIN      58  56  93 NW3       30.26R FOG
FT INDIANTOWN  MOCLDY    59  59 100 N1        30.22S FOG
CAPITAL CITY   MOCLDY    61  59  93 W3        30.22R FOG
HARRISBURG     MOCLDY    62  59  90 NW5       30.21R FOG
YORK           CLOUDY    60  58  92 CALM      30.21R
$$

PAZ038>040-043-044-047-048-054-055-060>062-067>071-061100-
EASTERN PENNSYLVANIA

CITY           SKY/WX    TMP DP  RH WIND       PRES   REMARKS
SCRANTON       LGT RAIN  57  53  86 CALM      30.27S
MOUNT POCONO   LGT RAIN  52  47  83 N5        30.28R
ALLENTOWN      CLOUDY    66  45  46 N6        30.23R
QUAKERTOWN*    PTSUNNY   66  50  55 N5        30.24R
READING        CLOUDY    63  59  87 N3        30.20F
LANCASTER      FOG       58  58 100 CALM      30.21R VSB 1/4
COATESVILLE    PTSUNNY   63  63 100 CALM      30.22S
POTTSTOWN      MOCLDY    63  59  87 CALM      30.23S
BLUE BELL      PTCLDY    63  59  88 CALM      30.21S
DOYLESTOWN     CLOUDY    63  53  70 CALM      30.22R
WILLOW GROVE   NOT AVBL
NORTH PHILA    CLOUDY    68  50  52 NE6       30.23R
PHILADELPHIA   MOCLDY    66  61  84 N6        30.21R
$$



USA.gov is the U.S. government's official web portal to all federal, state and local government web resources and services.